Change the Weather History Date:

Wednesday, October 16, 2013

  Actual Average (KMTC) Record (KMTC)
Temperature  
Mean Temperature 56 °F -  
Max Temperature 62 °F 58 °F 79 °F (1958)
Min Temperature 51 °F 41 °F 26 °F (1991)
Degree Days  
Heating Degree Days 8    
Growing Degree Days 6 (Base 50)    
Moisture  
Dew Point 53 °F    
Average Humidity 84    
Maximum Humidity 100    
Minimum Humidity 55    
Precipitation  
Precipitation 0.00 in - - ()
Sea Level Pressure  
Sea Level Pressure 29.83 in    
Wind  
Wind Speed 7 mph (SW)    
Max Wind Speed 14 mph    
Max Gust Speed 21 mph    
Visibility 8 miles    
Events Rain    
Averages and records for this station are not official NWS values.
T = Trace of Precipitation, MM = Missing Value Source: NWS Daily Summary

Daily Weather History Graph

Daily Weather History Graph

Search for Another Location

Airport or City:

Trip Planner

Search our weather history database for the weather conditions in past years. The results will help you decide how hot, cold, wet, or windy it might be!

Date:

Astronomy

Oct. 16, 2013 Rise Set
Actual Time 7:45 AM EDT 6:45 PM EDT
Civil Twilight 7:16 AM EDT 7:14 PM EDT
Nautical Twilight 6:43 AM EDT 7:46 PM EDT
Astronomical Twilight 6:10 AM EDT 8:19 PM EDT
Moon 5:26 PM EDT (10/16) 5:08 AM EDT (10/16)
Length of Visible Light 11h 57m
Length of Day
11h 00m
Waxing Gibbous, 94% of the Moon is Illuminated
Oct 16
Waxing Gibbous
Oct 18
Full
Oct 26
Last Quarter
Nov 3
New
Nov 10
First Quarter

Hourly Weather History & Observations

Time (EDT) Temp. Dew Point Humidity Pressure Visibility Wind Dir Wind Speed Gust Speed Precip Events Conditions
12:16 AM 62.6 °F 62.6 °F 100% 29.83 in 4.0 mi SSW 10.4 mph 19.6 mph N/A Rain Light Rain
12:36 AM 60.8 °F 60.8 °F 100% 29.82 in 3.0 mi South 12.7 mph 17.3 mph N/A Rain Light Rain
12:56 AM 62.6 °F 62.6 °F 100% 29.82 in 4.0 mi South 13.8 mph 20.7 mph N/A Rain Rain
1:16 AM 62.6 °F 62.6 °F 100% 29.83 in 5.0 mi SW 6.9 mph - N/A Rain Rain
1:36 AM 62.6 °F 62.6 °F 100% 29.83 in 10.0 mi SSW 8.1 mph - N/A   Overcast
1:56 AM 62.6 °F 62.6 °F 100% 29.82 in 7.0 mi SSW 9.2 mph - N/A   Overcast
2:16 AM 62.6 °F 62.6 °F 100% 29.83 in 5.0 mi SW 4.6 mph - N/A   Overcast
2:36 AM 60.8 °F 60.8 °F 100% 29.83 in 5.0 mi SSW 4.6 mph - N/A   Overcast
2:56 AM 60.8 °F 60.8 °F 100% 29.83 in 5.0 mi SSW 4.6 mph - N/A   Overcast
3:16 AM 60.8 °F 60.8 °F 100% 29.82 in 4.0 mi SSW 5.8 mph - N/A   Scattered Clouds
3:36 AM 59.0 °F 59.0 °F 100% 29.82 in 4.0 mi SSW 6.9 mph - N/A   Scattered Clouds
3:56 AM 59.0 °F 59.0 °F 100% 29.81 in 4.0 mi SSW 4.6 mph - N/A   Scattered Clouds
4:16 AM 59.0 °F 59.0 °F 100% 29.82 in 4.0 mi SSW 5.8 mph - N/A   Scattered Clouds
4:36 AM 59.0 °F 59.0 °F 100% 29.81 in 4.0 mi SSW 5.8 mph - N/A   Scattered Clouds
4:56 AM 59.0 °F 59.0 °F 100% 29.80 in 4.0 mi SSW 4.6 mph - N/A   Scattered Clouds
5:16 AM 57.2 °F 57.2 °F 100% 29.80 in 2.5 mi South 4.6 mph - N/A   Clear
5:36 AM 59.0 °F 59.0 °F 100% 29.81 in 3.0 mi SSW 8.1 mph - N/A   Mostly Cloudy
5:56 AM 59.0 °F 59.0 °F 100% 29.81 in 5.0 mi SSW 4.6 mph - N/A   Overcast
6:16 AM 59.0 °F 59.0 °F 100% 29.81 in 4.0 mi SW 3.5 mph - N/A   Mostly Cloudy
6:36 AM 57.2 °F 57.2 °F 100% 29.81 in 3.0 mi SSW 5.8 mph - N/A   Mostly Cloudy
6:56 AM 59.0 °F 59.0 °F 100% 29.81 in 5.0 mi SSW 5.8 mph - N/A   Overcast
7:16 AM 59.0 °F 59.0 °F 100% 29.80 in 5.0 mi SSW 4.6 mph - N/A   Overcast
7:36 AM 59.0 °F 59.0 °F 100% 29.82 in 7.0 mi SW 6.9 mph - N/A   Overcast
7:56 AM 59.0 °F 59.0 °F 100% 29.81 in 7.0 mi SW 3.5 mph - N/A   Scattered Clouds
8:16 AM 57.2 °F 57.2 °F 100% 29.81 in 4.0 mi SSW 3.5 mph - N/A   Clear
8:36 AM 57.2 °F 57.2 °F 100% 29.82 in 3.0 mi Calm Calm - N/A   Mostly Cloudy
8:56 AM 59.0 °F 59.0 °F 100% 29.82 in 4.0 mi SW 4.6 mph - N/A   Overcast
9:16 AM 57.2 °F 55.4 °F 94% 29.83 in 10.0 mi West 6.9 mph - N/A   Overcast
9:36 AM 57.2 °F 53.6 °F 88% 29.83 in 10.0 mi West 3.5 mph - N/A   Overcast
9:56 AM 57.2 °F 53.6 °F 88% 29.83 in 10.0 mi West 3.5 mph - N/A   Mostly Cloudy
10:16 AM 57.2 °F 53.6 °F 88% 29.83 in 10.0 mi WSW 8.1 mph - N/A   Scattered Clouds
10:36 AM 59.0 °F 51.8 °F 77% 29.83 in 10.0 mi WSW 6.9 mph 16.1 mph N/A   Scattered Clouds
10:56 AM 59.0 °F 51.8 °F 77% 29.82 in 10.0 mi SW 13.8 mph 18.4 mph N/A   Clear
11:16 AM 60.8 °F 51.8 °F 72% 29.82 in 10.0 mi SW 8.1 mph - N/A   Scattered Clouds
11:36 AM 60.8 °F 51.8 °F 72% 29.82 in 10.0 mi West 8.1 mph 18.4 mph N/A   Mostly Cloudy
11:56 AM 60.8 °F 50.0 °F 68% 29.81 in 10.0 mi WSW 8.1 mph 16.1 mph N/A   Scattered Clouds
12:16 PM 62.6 °F 48.2 °F 59% 29.82 in 10.0 mi WSW 11.5 mph 18.4 mph N/A   Clear
12:36 PM 62.6 °F 46.4 °F 55% 29.81 in 10.0 mi SW 12.7 mph 19.6 mph N/A   Clear
12:56 PM 62.6 °F 48.2 °F 59% 29.81 in 10.0 mi West 11.5 mph 18.4 mph N/A   Scattered Clouds
1:16 PM 60.8 °F 46.4 °F 59% 29.81 in 10.0 mi SW 11.5 mph 17.3 mph N/A   Clear
1:36 PM 62.6 °F 48.2 °F 59% 29.80 in 10.0 mi WSW 8.1 mph - N/A   Scattered Clouds
1:56 PM 62.6 °F 48.2 °F 59% 29.80 in 10.0 mi West 8.1 mph - N/A   Scattered Clouds
2:16 PM 62.6 °F 48.2 °F 59% 29.80 in 10.0 mi SW 8.1 mph - N/A   Clear
2:36 PM 62.6 °F 48.2 °F 59% 29.80 in 10.0 mi WSW 8.1 mph - N/A   Clear
2:56 PM 62.6 °F 48.2 °F 59% 29.79 in 10.0 mi WSW 9.2 mph - N/A   Scattered Clouds
3:16 PM 62.6 °F 48.2 °F 59% 29.79 in 10.0 mi WSW 6.9 mph - N/A   Mostly Cloudy
3:36 PM 60.8 °F 46.4 °F 59% 29.80 in 10.0 mi WSW 9.2 mph - N/A   Overcast
3:56 PM 60.8 °F 46.4 °F 59% 29.80 in 10.0 mi WSW 6.9 mph 17.3 mph N/A   Mostly Cloudy
4:16 PM 59.0 °F 46.4 °F 63% 29.80 in 10.0 mi West 6.9 mph 16.1 mph N/A   Mostly Cloudy
4:36 PM 59.0 °F 46.4 °F 63% 29.81 in 10.0 mi West 9.2 mph - N/A   Mostly Cloudy
4:56 PM 57.2 °F 46.4 °F 67% 29.82 in 10.0 mi West 6.9 mph - N/A   Mostly Cloudy
5:16 PM 55.4 °F 46.4 °F 72% 29.82 in 10.0 mi West 8.1 mph - N/A   Overcast
5:36 PM 55.4 °F 46.4 °F 72% 29.82 in 10.0 mi West 4.6 mph - N/A   Overcast
5:56 PM 55.4 °F 46.4 °F 72% 29.82 in 10.0 mi WSW 3.5 mph - N/A   Overcast
6:16 PM 55.4 °F 46.4 °F 72% 29.83 in 10.0 mi WSW 3.5 mph - N/A   Overcast
6:36 PM 55.4 °F 46.4 °F 72% 29.83 in 10.0 mi West 6.9 mph - N/A   Overcast
6:56 PM 55.4 °F 46.4 °F 72% 29.84 in 10.0 mi WSW 4.6 mph - N/A   Overcast
7:16 PM 53.6 °F 46.4 °F 77% 29.84 in 10.0 mi WSW 3.5 mph - N/A   Overcast
7:36 PM 53.6 °F 46.4 °F 77% 29.85 in 10.0 mi West 6.9 mph - N/A   Overcast
7:56 PM 53.6 °F 48.2 °F 82% 29.85 in 10.0 mi WSW 3.5 mph - N/A   Overcast
8:16 PM 53.6 °F 48.2 °F 82% 29.86 in 10.0 mi Calm Calm - N/A   Overcast
8:36 PM 53.6 °F 48.2 °F 82% 29.86 in 10.0 mi WSW 5.8 mph - N/A   Overcast
8:56 PM 53.6 °F 48.2 °F 82% 29.87 in 10.0 mi West 5.8 mph 16.1 mph N/A   Overcast
9:16 PM 53.6 °F 48.2 °F 82% 29.87 in 10.0 mi WSW 3.5 mph - N/A   Overcast
9:36 PM 51.8 °F 48.2 °F 88% 29.88 in 10.0 mi SW 5.8 mph - N/A   Overcast
9:56 PM 51.8 °F 48.2 °F 88% 29.88 in 10.0 mi WSW 4.6 mph - N/A   Overcast
10:16 PM 51.8 °F 48.2 °F 88% 29.89 in 10.0 mi SW 6.9 mph - N/A   Overcast
10:36 PM 51.8 °F 48.2 °F 88% 29.89 in 10.0 mi SW 3.5 mph - N/A   Overcast
10:56 PM 51.8 °F 48.2 °F 88% 29.89 in 10.0 mi SW 5.8 mph - N/A   Overcast
11:16 PM 51.8 °F 48.2 °F 88% 29.89 in 10.0 mi SW 3.5 mph - N/A   Overcast
11:36 PM 51.8 °F 48.2 °F 88% 29.89 in 10.0 mi SW 5.8 mph - N/A   Overcast
11:56 PM 51.8 °F 48.2 °F 88% 29.89 in 10.0 mi SSW 4.6 mph - N/A   Overcast